Location: Gull Harbor
(47.1000°N, 122.9000°W)
Time: 08:48:28

N. Korean satellite - Visible Passes

Search period start: 20 March 2018 00:00
Search period end: 30 March 2018 00:00
Orbit: 460 x 512 km, 97.2° (Epoch: 19 March)

Date Brightness Start Highest point End Pass type
(mag) Time Alt. Az. Time Alt. Az. Time Alt. Az.
20 Mar 10.2 20:12:08 10° WSW 20:13:54 13° W 20:15:43 10° WNW visible
24 Mar 10.1 20:10:07 10° WSW 20:12:03 14° W 20:14:01 10° WNW visible
28 Mar 10.1 20:08:02 10° SW 20:10:08 14° W 20:12:15 10° NW visible
